Regional Weather Roundup
Issued by NWS

Home | Current Version | Previous Version | Graphics & Text | Print | Product List | Glossary On
Versions: 1 2 3 4 5 6 7 8 9 10 11 12 13 14 15 16 17 18 19 20 21 22 23 24 25 26 27 28 29 30 31 32 33 34 35 36 37 38 39 40 41 42 43 44 45 46 47 48 49 50
000
ASUS43 KBIS 250001
RWRND

NORTH DAKOTA REGIONAL WEATHER ROUNDUP
NATIONAL WEATHER SERVICE BISMARCK ND
600 PM CST SAT JAN 24 2015

NOTE: "FAIR" INDICATES FEW OR NO CLOUDS BELOW 12,000 FEET WITH NO
SIGNIFICANT WEATHER AND/OR OBSTRUCTIONS TO VISIBILITY.


NDZ001>003-009>011-017-250100-
NORTHWEST NORTH DAKOTA

CITY           SKY/WX    TMP DP  RH WIND       PRES   REMARKS
WILLISTON      CLOUDY    39  33  79 NW22      29.81R
6HR MIN TEMP:  37; 6HR MAX TEMP:  39; 6HR PCP:  0.01;

MINOT          LGT SNOW  32  29  88 W7        29.72R VSB 1
MINOT AFB      LGT SNOW  32  32 100 NW6       29.73R FOG
$$

NDZ018>021-031>035-040>046-250100-
SOUTHWEST NORTH DAKOTA

CITY           SKY/WX    TMP DP  RH WIND       PRES   REMARKS
BISMARCK       LGT SNOW  33  32  96 NW12      29.73R FOG
6HR MIN TEMP:  33; 6HR MAX TEMP:  42; 6HR PCP:  0.09;

DICKINSON      CLOUDY    39  34  82 NW17      29.76R
GARRISON         N/A     33  32  96 W9        29.73R
6HR MIN TEMP:  33; 6HR MAX TEMP:  39; 6HR PCP:  0.07;

HETTINGER ARPT CLOUDY    40  34  79 NW24G38   29.78R
$$

NDZ004>008-012>016-024-026-027-054-250100-
NORTHEAST NORTH DAKOTA

CITY           SKY/WX    TMP DP  RH WIND       PRES   REMARKS
GRAND FORKS    CLOUDY    27  23  85 N16       29.71R WCI  15
GRND FRKS AFB  CLOUDY    25  21  87 N17       29.72R WCI  11
DEVILS LAKE    CLOUDY    23  19  86 NE10      29.71R WCI  12
$$

NDZ022-023-025-028>030-036>039-047>053-250100-
SOUTHEAST NORTH DAKOTA

CITY           SKY/WX    TMP DP  RH WIND       PRES   REMARKS
FARGO          CLOUDY    34  30  85 N9        29.63R FOG
6HR MIN TEMP:  34; 6HR MAX TEMP:  35;

JAMESTOWN      LGT SNOW  31  29  92 N15       29.65R FOG
$$



USA.gov is the U.S. government's official web portal to all federal, state and local government web resources and services.